Location: Palmerston North
(40.3500°S, 175.6170°E)
Time: 10:35:49
(UTC+13:00)

Cosmos 1862 Rocket - Pass Details

Date: 24 January 2019
Orbit: 605 x 633 km, 82.5° (Epoch: 17 February)

Event Time Altitude Azimuth Distance (km) Brightness Sun altitude
Exits shadow 23:23:39 46° 114° (ESE) 844 4.1 -23.6°
Drops below altitude 10° 23:27:22 10° 161° (SSE) 2,011 6.7 -24.0°
Sets 23:29:39 0° 166° (SSE) 2,921 7.7 -24.2°
